Regional Weather Roundup
Issued by NWS

Home | Current Version | Previous Version | Text Only | Print | Product List | Glossary On
Versions: 1 2 3 4 5 6 7 8 9 10 11 12 13 14 15 16 17 18 19 20 21 22 23 24 25 26 27 28 29 30 31 32 33 34 35 36 37 38 39 40 41 42 43 44 45 46 47 48 49 50
000
ASUS44 KFWD 162315
RWRTX
NORTH TEXAS HOURLY WEATHER ROUNDUP
NATIONAL WEATHER SERVICE FORT WORTH TX
600 PM CDT TUE SEP 16 2014

NOTE: "FAIR" INDICATES FEW OR NO CLOUDS BELOW 12,000 FEET WITH NO
SIGNIFICANT WEATHER AND/OR OBSTRUCTIONS TO VISIBILITY.

TXZ118-119-170000-
DALLAS/FORT WORTH METROPLEX

CITY           SKY/WX    TMP DP  RH WIND       PRES   REMARKS
DFW AIRPORT    PTSUNNY   90  65  43 E6        29.97F HX  92
DALLAS LOVE    PTSUNNY   91  65  41 E7        29.97F HX  93
FTW MEACHAM    PTSUNNY   89  66  46 SE6       29.97F HX  91
DAL-EXECUTIVE  PTSUNNY   91  65  41 E9        29.97F HX  93
FTW-ALLIANCE   PTSUNNY   88  64  44 SE5       29.97F
FTW-NAS-JRB    PTSUNNY   93  63  36 CALM      30.01F HX  94
FTW-SPINKS     MOSUNNY   91  66  43 CALM      29.99F HX  94
ARLINGTON      PTSUNNY   90  66  45 E8        29.97F HX  92
GRAND PRAIRIE  MOSUNNY   90  64  43 MISG      29.99F HX  91
ADDISON        PTSUNNY   88  64  45 E3        29.98F
MESQUITE       SUNNY     90  64  43 E3        29.97F HX  91
LANCASTER      PTSUNNY   89  65  45 E5        29.98F HX  91
$$

TXZ091>094-102>105-117-120-121-131>134-170000-
NORTH CENTRAL TEXAS

CITY           SKY/WX    TMP DP  RH WIND       PRES   REMARKS
SHRMAN/DENISON PTSUNNY   86  68  54 E3        30.01F
GAINESVILLE    PTSUNNY   86  68  54 SE6       30.02F
BOWIE          PTSUNNY   85  67  54 SE5       30.01F
BRIDGEPORT     PTSUNNY   87  65  47 NE7       30.01F
DECATUR        PTSUNNY   85  66  52 NE5       30.01S
DENTON         PTSUNNY   88  65  46 E7        29.98F HX  90
MCKINNEY       PTSUNNY   89  68  49 NE8       29.98F HX  93
GREENVILLE     MOSUNNY   88  64  45 E5        29.98F
ROCKWALL       PTSUNNY   88  68  50 E7        29.97F HX  92
TERRELL        PTSUNNY   91  65  41 E10       29.98F HX  93
WAXAHACHIE     PTSUNNY   90  64  41 E7        29.98F HX  91
CLEBURNE       MOSUNNY   88  72  58 E7        30.00S HX  94
GRANBURY       SUNNY     90  68  48 SE8       29.99F HX  93
$$

TXZ083>090-098>101-113>116-127>130-139>142-154-155-170000-
WESTERN NORTH TEXAS

CITY           SKY/WX    TMP DP  RH WIND       PRES   REMARKS
WICHITA FALLS  PTSUNNY   88  68  51 SE9       29.99F HX  91
WF-KICKAPOO    PTSUNNY   89  64  44 SE7       30.01F HX  90
VERNON         PTSUNNY   89  63  41 S5        30.02S HX  90
ABILENE        CLOUDY    88  63  43 VRB5      30.04S
ABILENE-DYESS  PTSUNNY   87  62  43 S5        30.03S
BRECKENRIDGE   CLOUDY    89  62  40 CALM      30.00F HAZE
GRAHAM         PTSUNNY   89  61  39 SE3       29.98F
MINERAL WELLS  CLOUDY    88  63  43 SE3       29.98F
STEPHENVILLE   SUNNY     87  67  49 E10       30.03F HX  90
COMANCHE         N/A     90  61  38 E7        30.00F
COLEMAN        MOSUNNY   88  58  35 E3        30.03S
BRADY            N/A     88  64  45 NE10      30.01S
$$

TXZ143>147-156>162-174-175-170000-
CENTRAL TEXAS

CITY           SKY/WX    TMP DP  RH WIND       PRES   REMARKS
WACO           MOSUNNY   87  71  58 NE9       29.97F HX  93
WACO-TSTC      SUNNY     86  72  62 NE7       29.97S HX  92
WACO-MCGREGOR  MOSUNNY   82  70  65 E5        29.99S
HILLSBORO      MOSUNNY   88  68  51 E8        29.98F HX  91
CORSICANA      SUNNY     89  68  49 E8        29.98F HX  93
MEXIA          MOSUNNY   88  72  59 E5        29.96F HX  94
HEARNE           N/A     89  71  56 NE3       29.96R HX  95
CAMERON        PTSUNNY   87  71  59 N7        29.96R HX  92
TEMPLE         MOSUNNY   88  66  48 NE12      29.98R HX  90
KILLEEN        PTSUNNY   84  72  65 E14       29.99S
KILLEEN-SKYLRK MOSUNNY   79  70  73 SE7       29.99R
FORT HOOD      PTSUNNY   87  72  60 VRB7      29.99R HX  93
GATESVILLE     MOSUNNY   84  72  65 E7        30.01R
HAMILTON       PTSUNNY   87  65  47 E6        30.01F
LAMPASAS       LGT RAIN  82  73  75 N8        29.99S
$$

TXZ095>097-106>112-122>126-135>138-148>153-164>167-170000-
EAST TEXAS

CITY           SKY/WX    TMP DP  RH WIND       PRES   REMARKS
PARIS          MOSUNNY   86  66  51 CALM      30.01F
SULPHUR SPRNGS SUNNY     87  68  52 E7        30.01F HX  90
MOUNT PLEASANT MOSUNNY   86  69  55 CALM      30.00F HX  90
GILMER         MOSUNNY   90  70  51 NE6       29.99F HX  95
MINEOLA        MOSUNNY   88  70  55 CALM      29.99F HX  92
TYLER          PTSUNNY   88  69  53 E6        29.98F HX  92
LONGVIEW       MOSUNNY   89  67  47 E6        29.97F HX  92
MARSHALL       MOSUNNY   91  70  49 NE5       29.99F HX  96
ATHENS         MOSUNNY   86  70  58 NE7       29.96F HX  90
PALESTINE      PTSUNNY   87  73  62 NE7       29.98S HX  94
JACKSONVILLE   PTSUNNY   87  70  57 E7        30.01S HX  91
HENDERSON      MOSUNNY   87  68  53 NE6       29.98F HX  91
NACOGDOCHES    MOSUNNY   88  72  58 CALM      29.97F HX  94
LUFKIN         PTSUNNY   88  73  61 S12       29.97R HX  95
$$

SUPPLEMENTAL OBSERVATIONS (CENTRAL)

CITY           SKY/WX    TMP DP  RH WIND       PRES   REMARKS
LAKE TEXOMA      N/A     84  68  58 E3          N/A
PAT MAYSE LAKE   N/A     84  68  58 SE5         N/A
GREENVILLE       N/A     88  70  55 E6          N/A  HX  92
CEDAR HILL       N/A     91  66  43 E1          N/A  HX  94
LAKE LIMESTONE   N/A     88  70  55 NE8         N/A  HX  92
MCGREGOR         N/A     86  70  58 NE9         N/A  HX  90
$$

SUPPLEMENTAL OBSERVATIONS (WEST)

CITY           SKY/WX    TMP DP  RH WIND       PRES   REMARKS
MILLERS CREEK    N/A     82  64  54 S9G20       N/A
COMANCHE         N/A     90  64  43 E6          N/A  HX  91
HAMBY            N/A     88  63  42 SE6         N/A
IVIE RESERVOIR   N/A     90  63  40 E5          N/A  HX  90
COLORADO BEND    N/A     84  66  54 E7G15       N/A
$$

SUPPLEMENTAL OBSERVATIONS (EAST)

CITY           SKY/WX    TMP DP  RH WIND       PRES   REMARKS
TEXARKANA        N/A     91  68  46 CALM        N/A  HX  95
LINDEN           N/A     88  70  55 NE1         N/A  HX  92
CADDO LAKE       N/A     90  72  55 N1          N/A  HX  96
HENDERSON        N/A     88  70  55 NE3         N/A  HX  92
LUFKIN           N/A     88  70  55 MISG        N/A  HX  92
N SABINE NF      N/A     88  72  58 MISG        N/A  HX  94
$$

SUPPLEMENTAL OBSERVATIONS ARE A COLLECTION OF AUTOMATED INSTRUMENTS
THAT ARE MAINTAINED BY A VARIETY OF FEDERAL AND STATE AGENCIES.
CERTAIN ELEMENTS...SUCH AS HUMIDITY VALUES AND SUSTAINED WIND
SPEEDS...MAY BE APPROXIMATED.



USA.gov is the U.S. government's official web portal to all federal, state and local government web resources and services.